Petersburg, WV

10:23 PM EDT on April 28, 2017 (GMT -0400)
Petersburg

Weather History for KW99 - March, 2013

Change the Weather History Date:

Sunday, March 3, 2013

  Actual Average (KEKN) Record (KEKN)
Temperature  
Mean Temperature 33 °F -  
Max Temperature 38 °F 49 °F 73 °F (1974)
Min Temperature 29 °F 26 °F -14 °F (1980)
Degree Days  
Heating Degree Days 32    
Moisture  
Dew Point 16 °F    
Average Humidity 51    
Maximum Humidity 60    
Minimum Humidity 41    
Precipitation  
Precipitation 0.00 in - - ()
Sea Level Pressure  
Sea Level Pressure 29.91 in    
Wind  
Wind Speed 9 mph (NW)    
Max Wind Speed 21 mph    
Max Gust Speed 29 mph    
Visibility 10 miles    
Events Snow    
Averages and records for this station are not official NWS values.
T = Trace of Precipitation, MM = Missing Value Source: NWS Daily Summary

Daily Weather History Graph

Daily Weather History Graph

Search for Another Location

Airport or City:

Trip Planner

Search our weather history database for the weather conditions in past years. The results will help you decide how hot, cold, wet, or windy it might be!

Date:

Astronomy

Mar. 03, 2013 Rise Set
Actual Time 6:45 AM EST 6:11 PM EST
Civil Twilight 6:19 AM EST 6:38 PM EST
Nautical Twilight 5:48 AM EST 7:09 PM EST
Astronomical Twilight 5:17 AM EST 7:40 PM EST
Moon No Moon Rise 10:02 AM EST (3/3)
Length of Visible Light 12h 19m
Length of Day
11h 25m
Waning Gibbous, 64% of the Moon is Illuminated
Mar 3
Waning Gibbous
Mar 4
Last Quarter
Mar 11
New
Mar 19
First Quarter
Mar 27
Full

Hourly Weather History & Observations

Time (EST) Temp. Windchill Dew Point Humidity Pressure Visibility Wind Dir Wind Speed Gust Speed Precip Events Conditions
12:15 AM 32.2 °F 25.0 °F 18.5 °F 57% 29.91 in 10.0 mi NNW 8.1 mph - N/A   Overcast
12:35 AM 32.0 °F 24.2 °F 18.3 °F 57% 29.91 in 10.0 mi NNW 9.2 mph - N/A   Overcast
12:55 AM 32.0 °F 25.6 °F 18.1 °F 57% 29.90 in 10.0 mi North 6.9 mph - N/A   Overcast
1:15 AM 32.0 °F 24.2 °F 16.9 °F 54% 29.90 in 10.0 mi NW 9.2 mph - N/A   Overcast
1:35 AM 32.0 °F 25.6 °F 16.5 °F 53% 29.90 in 10.0 mi NNW 6.9 mph - N/A   Overcast
1:55 AM 32.0 °F 26.4 °F 17.2 °F 55% 29.90 in 10.0 mi NNW 5.8 mph - N/A   Overcast
2:15 AM 31.8 °F 25.4 °F 17.1 °F 55% 29.89 in 10.0 mi WNW 6.9 mph - N/A   Overcast
2:35 AM 31.5 °F 28.1 °F 17.4 °F 56% 29.89 in 10.0 mi NW 3.5 mph - N/A   Mostly Cloudy
2:55 AM 31.1 °F 24.5 °F 17.4 °F 57% 29.88 in 10.0 mi WNW 6.9 mph - N/A   Overcast
3:15 AM 30.4 °F 25.6 °F 17.1 °F 58% 29.88 in 10.0 mi NW 4.6 mph - N/A   Mostly Cloudy
3:35 AM 30.6 °F 23.8 °F 17.6 °F 59% 29.88 in 10.0 mi NW 6.9 mph - N/A   Scattered Clouds
3:55 AM 30.9 °F 25.2 °F 17.4 °F 57% 29.88 in 10.0 mi NW 5.8 mph - N/A   Mostly Cloudy
4:15 AM 31.6 °F 24.4 °F 17.6 °F 56% 29.88 in 10.0 mi WNW 8.1 mph 16.1 mph N/A   Overcast
4:35 AM 30.7 °F - 18.1 °F 60% 29.89 in 10.0 mi Calm Calm - N/A   Overcast
4:55 AM 31.1 °F - 17.8 °F 58% 29.89 in 10.0 mi Calm Calm - N/A   Overcast
5:35 AM 31.5 °F 24.2 °F 17.4 °F 56% 29.89 in 10.0 mi NW 8.1 mph - N/A   Overcast
5:55 AM 31.6 °F 23.7 °F 17.4 °F 56% 29.89 in 10.0 mi NNW 9.2 mph - N/A   Overcast
6:15 AM 31.5 °F 24.9 °F 18.0 °F 57% 29.89 in 10.0 mi NNW 6.9 mph - N/A   Overcast
6:35 AM 31.8 °F 23.9 °F 17.6 °F 56% 29.89 in 10.0 mi NW 9.2 mph - N/A   Overcast
6:55 AM 31.6 °F 24.4 °F 17.4 °F 56% 29.89 in 10.0 mi North 8.1 mph - N/A   Overcast
7:15 AM 31.5 °F 26.8 °F 18.0 °F 57% 29.89 in 10.0 mi North 4.6 mph - N/A   Overcast
7:35 AM 31.6 °F 25.1 °F 17.4 °F 56% 29.89 in 10.0 mi NNW 6.9 mph - N/A   Overcast
7:55 AM 32.0 °F 26.4 °F 17.6 °F 55% 29.90 in 10.0 mi North 5.8 mph - N/A   Overcast
8:15 AM 32.0 °F 26.4 °F 17.1 °F 54% 29.91 in 10.0 mi NNW 5.8 mph - N/A   Overcast
8:35 AM 33.3 °F 25.1 °F 15.3 °F 48% 29.91 in 10.0 mi NW 10.4 mph - N/A   Overcast
8:55 AM 33.3 °F 24.6 °F 14.0 °F 45% 29.91 in 10.0 mi NW 11.5 mph 16.1 mph N/A   Overcast
9:15 AM 33.1 °F 25.5 °F 14.2 °F 46% 29.91 in 10.0 mi NW 9.2 mph 26.5 mph N/A   Mostly Cloudy
9:35 AM 33.3 °F 27.1 °F 14.7 °F 47% 29.91 in 10.0 mi NW 6.9 mph 16.1 mph N/A   Scattered Clouds
9:55 AM 34.5 °F 26.2 °F 16.0 °F 47% 29.90 in 10.0 mi West 11.5 mph - N/A   Mostly Cloudy
10:15 AM 36.0 °F 30.3 °F 15.8 °F 44% 29.90 in 10.0 mi WNW 6.9 mph - N/A   Overcast
10:35 AM 36.1 °F 27.3 °F 16.0 °F 44% 29.90 in 10.0 mi WNW 13.8 mph 18.4 mph N/A   Overcast
10:55 AM 35.4 °F 29.0 °F 14.4 °F 42% 29.90 in 10.0 mi NNW 8.1 mph 18.4 mph N/A   Mostly Cloudy
11:15 AM 37.4 °F 28.5 °F 16.5 °F 43% 29.90 in 10.0 mi West 15.0 mph 18.4 mph N/A   Mostly Cloudy
11:35 AM 37.9 °F 30.5 °F 15.8 °F 41% 29.90 in 10.0 mi West 11.5 mph 19.6 mph N/A   Overcast
11:55 AM 36.9 °F 27.1 °F 15.1 °F 41% 29.90 in 10.0 mi West 17.3 mph 24.2 mph N/A   Scattered Clouds
12:15 PM 34.7 °F 23.4 °F 14.9 °F 44% 29.90 in 10.0 mi WNW 20.7 mph 25.3 mph N/A   Scattered Clouds
12:35 PM 34.5 °F 24.5 °F 14.9 °F 45% 29.89 in 10.0 mi West 16.1 mph 23.0 mph N/A   Mostly Cloudy
12:55 PM 34.3 °F 22.9 °F 14.7 °F 45% 29.89 in 10.0 mi WNW 20.7 mph 26.5 mph N/A   Overcast
1:15 PM 34.7 °F 24.7 °F 14.5 °F 44% 29.89 in 10.0 mi WNW 16.1 mph 26.5 mph N/A   Overcast
1:35 PM 34.7 °F 25.9 °F 15.8 °F 46% 29.88 in 10.0 mi West 12.7 mph 25.3 mph N/A   Overcast
1:55 PM 34.2 °F 25.7 °F 16.0 °F 47% 29.88 in 10.0 mi NW 11.5 mph 20.7 mph N/A   Overcast
2:15 PM 34.0 °F 26.0 °F 16.5 °F 49% 29.88 in 10.0 mi WNW 10.4 mph 19.6 mph N/A   Overcast
2:55 PM 34.9 °F 29.0 °F 17.1 °F 48% 29.89 in 10.0 mi West 6.9 mph - N/A   Overcast
3:15 PM 34.7 °F 24.7 °F 16.0 °F 46% 29.89 in 10.0 mi NW 16.1 mph 20.7 mph N/A   Overcast
3:35 PM 34.7 °F 25.9 °F 15.6 °F 46% 29.89 in 10.0 mi WNW 12.7 mph - N/A   Overcast
3:55 PM 34.3 °F 27.0 °F 15.3 °F 46% 29.89 in 10.0 mi NNW 9.2 mph - N/A   Overcast
4:15 PM 35.1 °F 26.9 °F 14.9 °F 44% 29.89 in 10.0 mi NW 11.5 mph 23.0 mph N/A   Overcast
4:35 PM 34.5 °F 25.7 °F 15.4 °F 46% 29.89 in 10.0 mi West 12.7 mph 26.5 mph N/A   Overcast
4:55 PM 35.1 °F 26.4 °F 15.8 °F 45% 29.89 in 10.0 mi NNW 12.7 mph 20.7 mph N/A   Overcast
5:15 PM 34.0 °F 26.6 °F 16.0 °F 48% 29.90 in 10.0 mi NNW 9.2 mph - N/A   Mostly Cloudy
5:35 PM 32.4 °F 24.0 °F 16.0 °F 51% 29.91 in 10.0 mi WNW 10.4 mph - N/A   Mostly Cloudy
5:55 PM 31.6 °F 23.1 °F 15.3 °F 51% 29.91 in 10.0 mi WNW 10.4 mph - N/A   Scattered Clouds
6:15 PM 30.7 °F 23.3 °F 15.6 °F 54% 29.92 in 10.0 mi WNW 8.1 mph - N/A   Scattered Clouds
6:55 PM 31.1 °F 21.9 °F 16.5 °F 55% 29.93 in 10.0 mi WNW 11.5 mph - N/A   Mostly Cloudy
7:15 PM 31.1 °F 23.7 °F 16.5 °F 55% 29.94 in 10.0 mi WNW 8.1 mph - N/A   Mostly Cloudy
7:35 PM 31.8 °F 21.8 °F 17.2 °F 55% 29.94 in 10.0 mi WNW 13.8 mph 19.6 mph N/A   Overcast
7:55 PM 31.5 °F 23.5 °F 16.5 °F 54% 29.95 in 10.0 mi NW 9.2 mph - N/A   Overcast
8:15 PM 31.3 °F 23.3 °F 16.3 °F 54% 29.96 in 10.0 mi WNW 9.2 mph - N/A   Overcast
8:35 PM 31.5 °F 23.5 °F 16.3 °F 54% 29.96 in 10.0 mi NW 9.2 mph - N/A   Overcast
8:55 PM 31.5 °F 22.9 °F 16.9 °F 55% 29.97 in 10.0 mi WNW 10.4 mph - N/A Snow Light Snow
9:15 PM 31.3 °F 20.3 °F 15.6 °F 52% 29.97 in 10.0 mi West 16.1 mph 21.9 mph N/A   Overcast
9:35 PM 30.7 °F 19.6 °F 14.5 °F 51% 29.97 in 10.0 mi WNW 16.1 mph 28.8 mph N/A   Overcast
9:55 PM 30.6 °F 18.6 °F 13.6 °F 50% 29.98 in 10.0 mi West 18.4 mph 23.0 mph N/A   Overcast
10:15 PM 30.2 °F 24.3 °F 13.3 °F 49% 29.98 in 10.0 mi NW 5.8 mph - N/A   Overcast
10:35 PM 29.8 °F 21.5 °F 14.0 °F 52% 29.98 in 10.0 mi NW 9.2 mph - N/A   Overcast
10:55 PM 30.2 °F 21.9 °F 14.0 °F 51% 29.98 in 10.0 mi NW 9.2 mph 17.3 mph N/A   Overcast
11:15 PM 30.2 °F 24.3 °F 14.7 °F 53% 29.99 in 10.0 mi NW 5.8 mph - N/A   Overcast
11:35 PM 29.7 °F 23.7 °F 15.6 °F 56% 29.99 in 10.0 mi NNW 5.8 mph - N/A   Overcast
11:55 PM 29.3 °F 22.3 °F 16.0 °F 58% 29.99 in 10.0 mi NW 6.9 mph - N/A Snow Light Snow